FW7254 Weather Reports


Display with metric or nautical units.
time (UTC)temp
F
wind
direction
speed
MPH
gust
MPH
rain 1hr
in
rain 24hr
in
rain mn
in
humidity
%
barometer
mb
20260504001815 75 261 3.0 0.0 0.00 0.00 0.41 77 996.3
20260504000321 74 138 4.0 0.0 0.00 0.00 0.41 80 996.3
20260503234825 73 242 4.0 0.0 0.00 0.00 0.41 85 996.5
20260503233328 72 259 4.0 0.0 0.00 0.00 0.41 88 996.6
20260503231816 71 80 3.0 0.0 0.00 0.00 0.41 91 996.4
20260503230323 70 149 4.0 0.0 0.00 0.00 0.41 92 996.7
20260503224827 70 244 4.0 0.0 0.00 0.00 0.41 94 996.7
20260503223330 70 105 3.0 0.0 0.00 0.00 0.41 94 996.7
20260503221838 70 106 2.0 0.0 0.00 0.00 0.41 95 996.7
20260503220315 69 113 2.0 0.0 0.00 0.00 0.41 95 996.6
20260503214844 69 119 2.0 0.0 0.00 0.00 0.41 94 996.4
20260503213349 70 124 2.0 0.0 0.00 0.00 0.41 95 995.8
20260503211814 69 125 3.0 0.0 0.00 0.00 0.41 94 996.0
20260503210319 69 148 4.0 0.0 0.00 0.00 0.40 94 996.0
20260503204825 69 105 3.0 0.0 0.00 0.00 0.39 94 995.5
20260503203331 69 120 5.0 0.0 0.00 0.00 0.38 94 995.5
20260503201831 69 142 4.0 0.0 0.00 0.00 0.35 94 995.2
20260503200321 69 360 3.0 0.0 0.00 0.00 0.28 94 996.1
20260503194829 69 82 2.0 0.0 0.00 0.00 0.20 93 996.5
20260503193332 69 112 7.0 0.0 0.00 0.00 0.12 94 996.6
20260503191837 68 130 5.0 0.0 0.00 0.00 0.12 94 996.9
20260503190316 68 61 4.0 0.0 0.00 0.00 0.11 94 997.2
20260503184822 68 258 4.0 0.0 0.00 0.00 0.10 93 997.2
20260503183348 67 150 4.0 0.0 0.00 0.00 0.09 93 998.3
20260503181836 67 184 4.0 0.0 0.00 0.00 0.06 93 998.3
20260503180321 66 46 2.0 0.0 0.00 0.00 0.04 92 998.8
20260503174826 66 92 1.0 0.0 0.00 0.00 0.02 91 999.3
20260503173330 65 195 1.0 0.0 0.00 0.00 0.02 90 999.5
20260503171817 65 113 3.0 0.0 0.00 0.00 0.02 90 1000.2
20260503170320 65 103 5.0 0.0 0.00 0.00 0.02 90 999.9
20260503150320 66 113 2.0 0.0 0.00 0.00 0.00 88 1002.7
20260503130319 67 103 3.0 0.0 0.00 0.00 0.00 80 1005.2
20260503110323 68 217 3.0 0.0 0.00 0.00 0.00 75 1006.3
20260503090326 71 165 2.0 0.0 0.00 0.00 0.00 62 1005.6
20260503080321 73 131 2.0 0.0 0.00 0.00 0.00 61 1005.8
20260503071820 73 121 3.0 0.0 0.00 0.00 0.00 62 1005.4
20260503070327 73 187 4.0 0.0 0.00 0.00 0.00 64 1005.4
20260503060319 73 145 2.0 0.0 0.00 0.00 0.00 68 1006.2
20260503054825 73 190 2.0 0.0 0.00 0.00 0.00 70 1006.2
20260503053329 73 114 2.0 0.0 0.00 0.00 0.00 67 1006.6
20260503051827 74 161 2.0 0.0 0.00 0.00 0.00 63 1006.8
20260503050313 75 117 2.0 0.0 0.00 0.00 0.00 60 1006.9
20260503044841 76 134 1.0 0.0 0.00 0.00 0.00 54 1007.6
20260503043326 76 253 2.0 0.0 0.00 0.00 0.00 50 1007.9
20260503041831 77 130 1.0 0.0 0.00 0.00 0.00 49 1008.2
20260503040331 77 145 1.0 0.0 0.00 0.00 0.00 50 1008.4
20260503034818 76 290 1.0 0.0 0.00 0.00 0.00 46 1008.6
20260503033345 75 123 1.0 0.0 0.00 0.00 0.00 45 1008.9
20260503031852 74 99 1.0 0.0 0.00 0.00 0.00 55 1009.1
20260503030316 72 98 1.0 0.0 0.00 0.00 0.00 57 1009.6
20260503024823 71 94 1.0 0.0 0.00 0.00 0.00 58 1010.0
20260503023331 70 82 0.0 0.0 0.00 0.00 0.00 60 1010.5
20260503021837 68 79 0.0 0.0 0.00 0.00 0.00 61 1010.6
20260503020321 68 78 0.0 0.0 0.00 0.00 0.00 64 1010.8
20260503014820 67 78 0.0 0.0 0.00 0.00 0.00 65 1011.0
20260503013327 67 78 0.0 0.0 0.00 0.00 0.00 63 1011.1
20260503011832 67 78 0.0 0.0 0.00 0.00 0.00 64 1011.4
20260503010317 67 78 0.0 0.0 0.00 0.00 0.00 64 1011.7
20260503004844 66 78 0.0 0.0 0.00 0.00 0.00 64 1012.0
20260503003328 66 78 0.0 0.0 0.00 0.00 0.00 63 1012.1